Regional Weather Roundup
Issued by NWS Lake Charles, LA

Home | Current Version | Previous Version | Text Only | Print | Product List | Glossary On
Versions: 1 2 3 4 5 6 7 8 9 10 11 12 13 14 15 16 17 18 19 20 21 22 23 24 25 26 27 28 29 30 31 32 33 34 35 36 37 38 39 40 41 42 43 44 45 46 47 48 49
000
ASUS44 KLCH 141010
RWRLCH
RWRLCH
REGIONAL WEATHER ROUNDUP
NATIONAL WEATHER SERVICE LAKE CHARLES LA
500 AM CDT MON JUL 14 2014

Note: "fair" indicates few or no clouds below 12,000 feet with no
significant weather and/or obstructions to visibility.


ACROSS SOUTHEAST TEXAS

CITY           SKY/WX    TMP DP  RH WIND       PRES   REMARKS
BEAUMONT       CLEAR     72  71  97 CALM      30.02S
BEAUMONT CITY    N/A     70  70  98 CALM      30.03S
ORANGE         SUNNY     70  70 100 CALM      30.04S FOG
JASPER         CLEAR     68  67  96 CALM      30.05S FOG
$$

ACROSS CENTRAL LOUISIANA

CITY           SKY/WX    TMP DP  RH WIND       PRES   REMARKS
LEESVILLE      CLEAR     70  69  97 CALM      30.03S
FULLERTON        N/A     71  68  90 CALM      30.01R FOG
ALEXANDRIA INT CLEAR     72  70  93 SE3       30.01R
ESLER FIELD    FOG       73  71  93 CALM      30.03S VSB 3/4
DERIDDER         N/A     70  69  95 CALM      30.05R
OAKDALE        SUNNY     70  68  96 CALM      30.03S FOG
OPELOUSAS        N/A     71  71  99 CALM      30.03R
$$

ACROSS SOUTHWEST AND SOUTH CENTRAL LOUISIANA

CITY           SKY/WX    TMP DP  RH WIND       PRES   REMARKS
SULPHUR        SUNNY     73  72  98 CALM      30.03S
LAKE CHARLES   CLEAR     73  71  93 CALM      30.02R FOG
CHENNAULT INT  NOT AVBL
CAMERON PHI    SUNNY     75  73  94 CALM      30.03S
DEQUINCY         N/A     68  67  98 CALM      30.03S
JENNINGS         N/A     73  73 100 CALM      30.02S
LAFAYETTE      PTCLDY    75  73  93 CALM      30.03R
NEW IBERIA     PTCLDY    76  74  93 CALM      30.04R
ABBEVILLE        N/A     74  73  97 CALM      30.03S
PATTERSON      PTCLDY    75  75 100 NW3       30.07R
SALT POINT       N/A     80  75  84 CALM      30.02S
$$

SELECTED SITES ACROSS THE REGION

CITY           SKY/WX    TMP DP  RH WIND       PRES   REMARKS
HOUSTON BUSH   PTCLDY    79  74  84 SW3       30.02S
HOUSTON HOBBY  MOCLDY    79  74  84 SW5       30.02S
GALVESTON      PTCLDY    81  76  84 SW3       30.03S
COLLEGE STAT   PTCLDY    76  71  85 S7        30.02S
CONROE         MOCLDY    78  73  84 SW6       30.03S
HUNTSVILLE     CLOUDY    78  71  79 S8        30.02S
LUFKIN         PTCLDY    74  69  85 SE5       30.01S
SHREVEPORT     PTCLDY    76  70  82 SW3       29.99S
MONROE         CLEAR     75  73  93 CALM      30.02R
NATCHEZ MS     CLEAR     73  72  94 SE3       30.04S
BATON ROUGE    CLEAR     75  72  90 S3        30.03R
N.O. INTL ARPT MOCLDY    78  75  90 SW6       30.03S
SLIDELL        CLEAR     73  70  90 CALM      30.02R
$$

MARINE REPORTS

STATION/POSITION TIME  TEMP    WIND        PRES    VSBY  WAVE
                       AIR SEA DIR/SP/G                  HT/PER
                 (UTC) (F)     (DEG/KT/KT) (MB)    (MI)  (FT/S)
BUOY 30 S HIGH I 0900   84     200/  8/ 12 1016.3
SEA RIM ST PARK  1000   73     360/  4/  4 1017.4R
PORT ARTHUR      1000      88   10/  3/  4 1016.8R
SABINE PASS N    1000   79 87   40/  3/  4 1016.8R
TEXAS POINT      1000   78 87   10/  5/  6 1017.0R
CALCASIEU PASS   1000   77 88   80/  4/  4 1017.8R
LK CHARLES BEACH 1000   73 86              1017.3S
MARSH ISLAND     0900   85     240/  6/ 10   N/A
FRESH WATER LOCK 1000   81 88  330/  2/  3 1016.7F
AMERADA PASS     1000   80 84  190/  1/  3 1016.7F
$$



USA.gov is the U.S. government's official web portal to all federal, state and local government web resources and services.